Location: Newark
(30.0333°N, 31.2167°E)
Time: 19:26:32
(UTC+00:00)

Tiros 1 - Pass Details

Date: 26 January 2020
Orbit: 631 x 664 km, 48.4° (Epoch: 22 February)

Event Time Altitude Azimuth Distance (km) Brightness Sun altitude
Rises 14:53:38 0° 324° (NW) 2,970 10.7 5.7°
Reaches altitude 10° 14:56:53 10° 346° (NNW) 2,064 9.7 5.1°
Maximum altitude 14:59:43 16° 23° (NNE) 1,728 9.0 4.5°
Drops below altitude 10° 15:02:34 10° 60° (ENE) 2,071 9.1 3.9°
Sets 15:05:50 0° 83° (E) 2,985 9.9 3.3°
